Flag for India Weather past 2 weeks in Jaunpur, Uttar Pradesh, India

Now
97 °F

Haze.


Feels Like: 99 °F
Forecast: 83 / 109 °F
Wind: 3 mph from Southwest

Location: Varanasi / Babatpur

Current Time: May 7, 2015 at 1:19:03 PM

Latest Report: May 7, 2015 at 12:00 PM


Visibility: 2 mi

Pressure: 29.65 "Hg

Humidity: 34%

Dew point: 64 °F

Location of JaunpurLocation

Historic Weather in Jaunpur — Graph

°F

Jaunpur temperature yesterday

Maximum temperature yesterday: 108 °F (at 2:00 PM)
Minimum temperature yesterday: 77 °F (at 6:00 AM)
Average temperature yesterday: 96 °F

Past Weeks' High & Low Weather Summary

 TemperatureHumidityPressure
High108 °F (May 5, 2:00 PM)94% (Apr 29, 12:00 AM)29.89 "Hg (Apr 29, 12:00 AM)
Low70 °F (Apr 28, 12:00 PM)10% (May 4, 2:00 PM)29.56 "Hg (May 6, 4:00 PM)
Average89 °F47%29.71 "Hg
* Reported Apr 22 12:00 Noon — May 7 12:00 Noon, Jaunpur, Weather by CustomWeather, © 2015

Note: Actual official high and low records may vary slightly from our data, if they occured in-between our weather recording intervals... More about our weather records

Advertising

Jaunpur weather history for previous 24 hours

 ConditionsComfort  
Time TempWeatherWind HumidityBarometerVisibility
12:00 PM
Thu, May 7
97 °FHaze.3 mph34%29.65 "Hg2 mi
11:00 AM95 °FHaze.2 mph44%29.68 "Hg2 mi
9:00 AM90 °FHaze.7 mph67%29.71 "Hg1 mi
8:00 AM86 °FHaze.6 mph66%29.71 "Hg1 mi
7:00 AM82 °FHaze.6 mph66%29.68 "Hg1 mi
6:00 AM81 °FHaze.3 mph70%29.65 "Hg1 mi
5:00 AM81 °FHaze.5 mph66%29.62 "Hg1 mi
12:00 AM86 °FHaze.No wind52%29.62 "Hg2 mi
10:00 PM
Wed, May 6
91 °FHaze.5 mph44%29.62 "Hg2 mi
9:00 PM91 °FHaze.No wind41%29.59 "Hg2 mi
8:00 PM93 °FPassing clouds.No wind39%29.59 "Hg2 mi
7:00 PM95 °FScattered clouds.No wind44%29.56 "Hg3 mi
6:00 PM100 °FHaze.No wind35%29.56 "Hg3 mi
5:00 PM106 °FHaze.No wind23%29.56 "Hg3 mi
4:00 PM106 °FHaze.5 mph22%29.56 "Hg3 mi
3:00 PM108 °FScattered clouds.8 mph20%29.59 "Hg3 mi
2:00 PM108 °FScattered clouds.7 mph20%29.62 "Hg3 mi
1:00 PM104 °FScattered clouds.7 mph23%29.65 "Hg2 mi
Weather by CustomWeather, © 2015

See weather overviewHow to use our weather pages